Location: Berg
(47.2344°N, 9.5296°E)
Time: 05:40:02
(UTC+00:00)

Nauka - Pass Details

Date: 17 September 2021
Orbit: 418 x 423 km, 51.6° (Epoch: 15 October)

Event Time Altitude Azimuth Distance (km) Brightness Sun altitude
Rises 19:31:23 0° 240° (WSW) 2,356 ? -20.7°
Reaches altitude 10° 19:33:29 10° 239° (WSW) 1,496 ? -21.0°
Enters shadow 19:35:57 46° 231° (SW) 573 ? -21.3°
